Weather History for Orlando International, FL

Change the Weather History Date:

Saturday, July 13, 2013

  Actual Average Record
Temperature  
Mean Temperature 81 °F 83 °F  
Max Temperature 90 °F 92 °F 98 °F (1937)
Min Temperature 72 °F 74 °F 66 °F (1893)
Degree Days  
Heating Degree Days 0 0  
Month to date heating degree days 0 0  
Since 1 June heating degree days 0 0  
Since 1 July heating degree days 0 0  
Cooling Degree Days 16 18  
Month to date cooling degree days 222 226  
Year to date cooling degree days 1603 1517  
Since 1 June cooling degree days 731 716  
Growing Degree Days 31 (Base 50)    
Moisture  
Dew Point 73 °F    
Average Humidity 76    
Maximum Humidity 100    
Minimum Humidity 52    
Precipitation  
Precipitation 0.01 in 0.23 in 4.11 in (1991)
Month to date precipitation 2.53 3.03  
Year to date precipitation 23.50 25.24  
Sea Level Pressure  
Sea Level Pressure 29.97 in    
Wind  
Wind Speed 5 mph (SSE)    
Max Wind Speed 21 mph    
Max Gust Speed 28 mph    
Visibility 9 miles    
Events Rain , Thunderstorm    
T = Trace of Precipitation, MM = Missing Value Source: NWS Daily Summary

Daily Weather History Graph

Daily Weather History Graph

Search for Another Location

Airport:

Trip Planner

Search our weather history database for the weather conditions in past years. The results will help you decide how hot, cold, wet, or windy it might be!

Date:

Astronomy

Jul. 13, 2013 Rise Set
Actual Time 6:36 AM EDT 8:24 PM EDT
Civil Twilight 6:10 AM EDT 8:51 PM EDT
Nautical Twilight 5:38 AM EDT 9:23 PM EDT
Astronomical Twilight 5:05 AM EDT 9:56 PM EDT
Moon 11:21 AM EDT (7/13) 11:37 PM EDT (7/13)
Length of Visible Light 14h 40m
Length of Day
13h 48m
Waxing Crescent, 25% of the Moon is Illuminated
Jul 13
Waxing Crescent
Jul 15
First Quarter
Jul 22
Full
Jul 29
Last Quarter
Aug 6
New

Hourly Weather History & Observations

Time (EDT) Temp. Heat Index Dew Point Humidity Pressure Visibility Wind Dir Wind Speed Gust Speed Precip Events Conditions
12:53 AM 75.0 °F - 73.9 °F 96% 29.95 in 10.0 mi Calm Calm - N/A   Scattered Clouds
1:53 AM 75.0 °F - 73.9 °F 96% 29.94 in 10.0 mi Calm Calm - N/A   Scattered Clouds
2:13 AM 75.2 °F - 73.4 °F 94% 29.94 in 10.0 mi South 3.5 mph - N/A   Partly Cloudy
2:53 AM 73.9 °F - 73.9 °F 100% 29.93 in 10.0 mi South 3.5 mph - N/A   Scattered Clouds
3:53 AM 73.0 °F - 73.0 °F 100% 29.94 in 8.0 mi Calm Calm - N/A   Partly Cloudy
4:53 AM 73.9 °F - 73.0 °F 97% 29.94 in 10.0 mi Calm Calm - N/A   Scattered Clouds
5:53 AM 73.0 °F - 73.0 °F 100% 29.94 in 6.0 mi Calm Calm - N/A   Scattered Clouds
6:17 AM 73.4 °F - 73.4 °F 100% 29.95 in 9.0 mi Calm Calm - N/A   Mostly Cloudy
6:53 AM 73.0 °F - 72.0 °F 96% 29.94 in 1.2 mi Calm Calm - N/A   Mostly Cloudy
6:56 AM 71.6 °F - 71.6 °F 100% 29.94 in 7.0 mi Calm Calm - N/A   Mostly Cloudy
7:53 AM 75.0 °F - 73.9 °F 96% 29.94 in 10.0 mi Calm Calm - N/A   Scattered Clouds
8:27 AM 77.0 °F - 75.2 °F 94% 29.96 in 10.0 mi South 5.8 mph - N/A   Scattered Clouds
8:53 AM 78.1 °F - 75.0 °F 90% 29.97 in 10.0 mi SE 5.8 mph - N/A   Mostly Cloudy
9:00 AM 78.8 °F - 75.2 °F 89% 29.97 in 10.0 mi SE 3.5 mph - N/A   Mostly Cloudy
9:12 AM 78.8 °F - 73.4 °F 83% 29.98 in 10.0 mi SSE 4.6 mph - N/A   Scattered Clouds
9:53 AM 81.0 °F 86.2 °F 73.9 °F 79% 29.99 in 10.0 mi Variable 3.5 mph - N/A   Scattered Clouds
10:53 AM 82.9 °F 88.8 °F 73.0 °F 72% 29.99 in 10.0 mi South 4.6 mph - N/A   Scattered Clouds
11:53 AM 84.0 °F 89.6 °F 72.0 °F 67% 29.99 in 10.0 mi South 3.5 mph - N/A   Mostly Cloudy
12:53 PM 87.1 °F 93.6 °F 72.0 °F 61% 29.97 in 10.0 mi Variable 5.8 mph - N/A   Mostly Cloudy
1:53 PM 90.0 °F 95.4 °F 70.0 °F 52% 29.95 in 10.0 mi Calm Calm - N/A   Scattered Clouds
2:53 PM 82.9 °F 89.4 °F 73.9 °F 74% 29.96 in 8.0 mi ESE 18.4 mph - 0.01 in Rain Light Rain
3:53 PM 81.0 °F 84.9 °F 71.1 °F 72% 29.99 in 10.0 mi SSE 15.0 mph 23.0 mph 0.00 in   Overcast
4:17 PM 78.8 °F - 69.8 °F 74% 29.99 in 10.0 mi SW 17.3 mph 23.0 mph N/A Thunderstorm Thunderstorm
4:40 PM 78.8 °F - 69.8 °F 74% 29.98 in 10.0 mi SSW 6.9 mph - N/A   Overcast
4:53 PM 77.0 °F - 71.1 °F 82% 29.98 in 10.0 mi WSW 10.4 mph - N/A   Overcast
5:53 PM 77.0 °F - 71.1 °F 82% 29.98 in 10.0 mi SSE 3.5 mph - 0.00 in   Mostly Cloudy
6:53 PM 77.0 °F - 73.0 °F 88% 29.97 in 10.0 mi SSE 4.6 mph - 0.00 in   Mostly Cloudy
7:53 PM 78.1 °F - 72.0 °F 81% 29.98 in 10.0 mi East 4.6 mph - N/A   Mostly Cloudy
8:53 PM 75.9 °F - 72.0 °F 87% 29.99 in 10.0 mi SSE 4.6 mph - N/A   Mostly Cloudy
9:53 PM 75.0 °F - 72.0 °F 90% 30.01 in 10.0 mi SE 6.9 mph - N/A   Mostly Cloudy
10:53 PM 73.9 °F - 72.0 °F 93% 30.01 in 10.0 mi ESE 8.1 mph - N/A   Mostly Cloudy
11:53 PM 73.0 °F - 72.0 °F 96% 30.02 in 10.0 mi SSE 3.5 mph - N/A   Mostly Cloudy